This is the latest recevied weather packets stored in our database for station/object KC0RPY. If no packets are shown the sender has not sent any weather packets the latest 1 day(s).
| Time | Temp. | Humidity | Pressure | Rain* | Wind** | Luminosity | Snow |
|---|---|---|---|---|---|---|---|
| 1778040599 | 10° C | 84% | 1015 hPa | 0 mm | 1.34 m/s, 64° | 0 W/m² | - |
| 1778040297 | 10° C | 86% | 1015.3 hPa | 0 mm | 1.34 m/s, 359° | 0 W/m² | - |
| 1778039992 | 10° C | 85% | 1015.7 hPa | 0 mm | 0.45 m/s, 106° | 0 W/m² | - |
| 1778039690 | 10° C | 85% | 1015 hPa | 0 mm | 0.45 m/s, 107° | 0 W/m² | - |
| 1778039386 | 10° C | 86% | 1015 hPa | 0 mm | 0.45 m/s, 112° | 0 W/m² | - |
| 1778039084 | 10° C | 85% | 1015 hPa | 0 mm | 0 m/s | 0 W/m² | - |
| 1778038780 | 10° C | 84% | 1014.5 hPa | 0 mm | 0.89 m/s, 107° | 0 W/m² | - |
| 1778038478 | 10.56° C | 82% | 1015 hPa | 0 mm | 0.89 m/s, 8° | 0 W/m² | - |
| 1778038174 | 10° C | 83% | 1015 hPa | 0 mm | 1.34 m/s, 342° | 0 W/m² | - |
| 1778037872 | 10° C | 86% | 1014.5 hPa | 0 mm | 0.45 m/s, 115° | 0 W/m² | - |
| 1778037568 | 10° C | 86% | 1014.2 hPa | 0 mm | 0.89 m/s, 80° | 0 W/m² | - |
| 1778037266 | 10° C | 88% | 1014.2 hPa | 0 mm | 0.89 m/s, 77° | 0 W/m² | - |
| 1778036963 | 9.44° C | 92% | 1014.2 hPa | 0 mm | 1.34 m/s, 328° | 0 W/m² | - |
| 1778036661 | 9.44° C | 96% | 1014.2 hPa | 0 mm | 0.45 m/s, 147° | 0 W/m² | - |
| 1778036357 | 9.44° C | 98% | 1013.9 hPa | 0 mm | 0.45 m/s, 146° | 0 W/m² | - |
| 1778036055 | 9.44° C | 97% | 1013.9 hPa | 0 mm | 0 m/s | 0 W/m² | - |
| 1778035751 | 8.89° C | 96% | 1013.9 hPa | 0 mm | 0 m/s | 0 W/m² | - |
| 1778035448 | 9.44° C | 96% | 1013.9 hPa | 0 mm | 0 m/s | 0 W/m² | - |
| 1778035144 | 8.89° C | 96% | 1013.5 hPa | 0 mm | 0 m/s | 0 W/m² | - |
| 1778034841 | 9.44° C | 96% | 1013.9 hPa | 0 mm | 0 m/s | 0 W/m² | - |
| 1778034538 | 9.44° C | 96% | 1013.5 hPa | 0 mm | 0 m/s | 0 W/m² | - |
| 1778034235 | 9.44° C | 96% | 1013.2 hPa | 0 mm | 0 m/s | 0 W/m² | - |
| 1778033933 | 8.89° C | 96% | 1013.2 hPa | 0 mm | 0 m/s | 0 W/m² | - |
| 1778033630 | 8.89° C | 96% | 1013.5 hPa | 0 mm | 0 m/s | 0 W/m² | - |
| 1778033327 | 8.89° C | 96% | 1013.2 hPa | 0 mm | 0 m/s | 0 W/m² | - |
* Rain latest hour (hover to see other rain measurements)
** Current wind speed in m/s (hover to see current wind gust speed)